Retour au catalogue

STARLINK-5730

ActifCommunicationsVLEO
NORAD 55611·PAYLOAD·🇺🇸 United States

Lancé Feb 12, 2023 depuis Cape Canaveral Space Force Station

Loading…

Prochains Passages (prochaines 24 heures)

TLE

FraisSource: CelesTrak SupGP

Époque: Sep 15, 2026, 02:01 UTC

1 55611C 23020AU  26258.08451389 -.00013371  00000+0 -48403-3 0  2582
2 55611  43.0037   4.9729 0002175 268.7365 343.4636 15.27600955    10

Suivez STARLINK-5730 en temps réel avec AllMySat

Download on the App Store